| time (UTC) | temp C | wind direction | speed KPH | gust KPH | rain 1hr cm | rain 24hr cm | rain mn cm | humidity % | barometer mb |
| 20260903020006 | 30 | 78 | 0.0 | 0.0 | 0.00 | 0.00 | 0.00 | 58 | 1008.0 |
| 20260903015556 | 30 | 78 | 0.0 | 0.0 | 0.00 | 0.00 | 0.00 | 57 | 1008.0 |
| 20260903015045 | 30 | 78 | 0.0 | 0.0 | 0.00 | 0.00 | 0.00 | 56 | 1007.9 |
| 20260903014536 | 31 | 78 | 0.0 | 0.0 | 0.00 | 0.00 | 0.00 | 55 | 1007.9 |
| 20260903014023 | 31 | 78 | 0.0 | 0.0 | 0.00 | 0.00 | 0.00 | 55 | 1007.8 |
| 20260903013512 | 31 | 78 | 0.0 | 0.0 | 0.00 | 0.00 | 0.00 | 55 | 1007.8 |
| 20260903013002 | 31 | 78 | 0.0 | 0.0 | 0.00 | 0.00 | 0.00 | 56 | 1007.8 |
| 20260903012553 | 32 | 78 | 0.0 | 0.0 | 0.00 | 0.00 | 0.00 | 54 | 1007.8 |
| 20260903012042 | 32 | 78 | 0.0 | 0.0 | 0.00 | 0.00 | 0.00 | 51 | 1007.8 |
| 20260903011540 | 32 | 78 | 0.0 | 0.0 | 0.00 | 0.00 | 0.00 | 51 | 1007.8 |
| 20260903011021 | 32 | 78 | 0.0 | 0.0 | 0.00 | 0.00 | 0.00 | 50 | 1007.8 |
| 20260903010511 | 33 | 78 | 0.0 | 0.0 | 0.00 | 0.00 | 0.00 | 50 | 1007.7 |
| 20260903010107 | 33 | 78 | 0.0 | 0.0 | 0.00 | 0.00 | 0.00 | 49 | 1007.7 |
| 20260903005541 | 33 | 78 | 0.0 | 0.0 | 0.00 | 0.00 | 0.00 | 49 | 1007.7 |
| 20260903005027 | 33 | 78 | 0.0 | 0.0 | 0.00 | 0.00 | 0.00 | 48 | 1007.7 |
| 20260903004527 | 33 | 78 | 0.0 | 0.0 | 0.00 | 0.00 | 0.00 | 46 | 1007.7 |
| 20260903004006 | 34 | 78 | 0.0 | 0.0 | 0.00 | 0.00 | 0.00 | 47 | 1007.7 |
| 20260903003557 | 34 | 78 | 0.0 | 0.0 | 0.00 | 0.00 | 0.00 | 46 | 1007.7 |
| 20260903003046 | 34 | 78 | 0.0 | 0.0 | 0.00 | 0.00 | 0.00 | 46 | 1007.7 |
| 20260903002537 | 35 | 117 | 0.0 | 0.0 | 0.00 | 0.00 | 0.00 | 46 | 1007.7 |
| 20260903002025 | 35 | 95 | 0.0 | 0.0 | 0.00 | 0.00 | 0.00 | 45 | 1007.7 |
| 20260903001514 | 35 | 95 | 0.0 | 4.8 | 0.00 | 0.00 | 0.00 | 45 | 1007.7 |
| 20260903001003 | 35 | 95 | 0.0 | 4.8 | 0.00 | 0.00 | 0.00 | 45 | 1007.7 |
| 20260903000557 | 35 | 108 | 0.0 | 4.8 | 0.00 | 0.00 | 0.00 | 44 | 1007.8 |
| 20260903000031 | 35 | 123 | 1.6 | 11.3 | 0.00 | 0.00 | 0.00 | 44 | 1007.7 |
| 20260902235521 | 35 | 129 | 0.0 | 11.3 | 0.00 | 0.00 | 0.00 | 43 | 1007.7 |
| 20260902235009 | 35 | 68 | 3.2 | 11.3 | 0.00 | 0.00 | 0.00 | 43 | 1007.8 |
| 20260902234602 | 35 | 137 | 1.6 | 6.4 | 0.00 | 0.00 | 0.00 | 43 | 1007.7 |
| 20260902234050 | 36 | 99 | 0.0 | 12.9 | 0.00 | 0.00 | 0.00 | 42 | 1007.7 |
| 20260902233539 | 36 | 80 | 3.2 | 14.5 | 0.00 | 0.00 | 0.00 | 41 | 1007.8 |
| 20260902233036 | 36 | 154 | 6.4 | 14.5 | 0.00 | 0.00 | 0.00 | 40 | 1007.8 |
| 20260902232519 | 36 | 147 | 3.2 | 11.3 | 0.00 | 0.00 | 0.00 | 40 | 1007.8 |
| 20260902232010 | 36 | 135 | 4.8 | 12.9 | 0.00 | 0.00 | 0.00 | 40 | 1007.8 |
| 20260902231559 | 36 | 96 | 3.2 | 17.7 | 0.00 | 0.00 | 0.00 | 40 | 1007.8 |
| 20260902231048 | 36 | 105 | 8.0 | 17.7 | 0.00 | 0.00 | 0.00 | 40 | 1007.7 |
| 20260902230539 | 36 | 139 | 6.4 | 12.9 | 0.00 | 0.00 | 0.00 | 41 | 1007.7 |
| 20260902230014 | 36 | 82 | 4.8 | 12.9 | 0.00 | 0.00 | 0.00 | 41 | 1007.7 |
| 20260902225505 | 36 | 100 | 4.8 | 11.3 | 0.00 | 0.00 | 0.00 | 42 | 1007.6 |
| 20260902225055 | 36 | 80 | 3.2 | 16.1 | 0.00 | 0.00 | 0.00 | 43 | 1007.6 |
| 20260902224544 | 36 | 117 | 6.4 | 16.1 | 0.00 | 0.00 | 0.00 | 43 | 1007.6 |
| 20260902224034 | 36 | 99 | 6.4 | 14.5 | 0.00 | 0.00 | 0.00 | 44 | 1007.7 |
| 20260902223523 | 35 | 57 | 6.4 | 14.5 | 0.00 | 0.00 | 0.00 | 45 | 1007.7 |
| 20260902223013 | 35 | 68 | 9.7 | 14.5 | 0.00 | 0.00 | 0.00 | 46 | 1007.7 |
| 20260902222502 | 35 | 98 | 6.4 | 14.5 | 0.00 | 0.00 | 0.00 | 47 | 1007.9 |
| 20260902222052 | 35 | 63 | 8.0 | 16.1 | 0.00 | 0.00 | 0.00 | 47 | 1007.9 |
| 20260902221542 | 34 | 84 | 8.0 | 14.5 | 0.00 | 0.00 | 0.00 | 47 | 1007.8 |
| 20260902221031 | 35 | 109 | 8.0 | 16.1 | 0.00 | 0.00 | 0.00 | 47 | 1007.9 |
| 20260902220520 | 35 | 85 | 8.0 | 19.3 | 0.00 | 0.00 | 0.00 | 46 | 1008.0 |
| 20260902220100 | 35 | 41 | 12.9 | 20.9 | 0.00 | 0.00 | 0.00 | 45 | 1008.0 |
| 20260902215549 | 36 | 92 | 9.7 | 20.9 | 0.00 | 0.00 | 0.00 | 44 | 1008.0 |
| 20260902215035 | 37 | 69 | 14.5 | 19.3 | 0.00 | 0.00 | 0.00 | 42 | 1007.9 |
| 20260902214524 | 37 | 111 | 4.8 | 16.1 | 0.00 | 0.00 | 0.00 | 41 | 1007.9 |
| 20260902214014 | 38 | 114 | 8.0 | 16.1 | 0.00 | 0.00 | 0.00 | 39 | 1007.9 |
| 20260902213504 | 38 | 180 | 4.8 | 16.1 | 0.00 | 0.00 | 0.00 | 37 | 1008.0 |
| 20260902213102 | 37 | 141 | 3.2 | 12.9 | 0.00 | 0.00 | 0.00 | 37 | 1008.0 |
| 20260902212544 | 37 | 187 | 6.4 | 12.9 | 0.00 | 0.00 | 0.00 | 37 | 1008.0 |
| 20260902212033 | 37 | 217 | 3.2 | 9.7 | 0.00 | 0.00 | 0.00 | 38 | 1008.0 |
| 20260902211522 | 38 | 340 | 1.6 | 8.0 | 0.00 | 0.00 | 0.00 | 38 | 1008.0 |
| 20260902211012 | 37 | 337 | 3.2 | 8.0 | 0.00 | 0.00 | 0.00 | 38 | 1008.1 |
| 20260902210502 | 37 | 227 | 1.6 | 16.1 | 0.00 | 0.00 | 0.00 | 38 | 1008.2 |
| 20260902210050 | 37 | 61 | 6.4 | 16.1 | 0.00 | 0.00 | 0.00 | 38 | 1008.1 |
| 20260902205530 | 37 | 122 | 3.2 | 12.9 | 0.00 | 0.00 | 0.00 | 39 | 1008.3 |
| 20260902205021 | 37 | 192 | 8.0 | 12.9 | 0.00 | 0.00 | 0.00 | 39 | 1008.5 |
| 20260902204515 | 37 | 145 | 1.6 | 8.0 | 0.00 | 0.00 | 0.00 | 38 | 1008.5 |
| 20260902204100 | 37 | 113 | 3.2 | 11.3 | 0.00 | 0.00 | 0.00 | 38 | 1008.6 |
| 20260902203549 | 37 | 219 | 0.0 | 17.7 | 0.00 | 0.00 | 0.00 | 38 | 1008.7 |
| 20260902203042 | 38 | 230 | 8.0 | 17.7 | 0.00 | 0.00 | 0.00 | 37 | 1008.8 |
| 20260902202528 | 38 | 190 | 9.7 | 17.7 | 0.00 | 0.00 | 0.00 | 37 | 1008.8 |
| 20260902202017 | 38 | 213 | 6.4 | 19.3 | 0.00 | 0.00 | 0.00 | 36 | 1008.8 |
| 20260902201511 | 38 | 188 | 8.0 | 16.1 | 0.00 | 0.00 | 0.00 | 36 | 1008.9 |
| 20260902201057 | 38 | 252 | 8.0 | 16.1 | 0.00 | 0.00 | 0.00 | 37 | 1009.0 |
| 20260902200547 | 38 | 181 | 9.7 | 16.1 | 0.00 | 0.00 | 0.00 | 37 | 1009.1 |
| 20260902200024 | 38 | 277 | 1.6 | 12.9 | 0.00 | 0.00 | 0.00 | 37 | 1009.2 |
| 20260902195513 | 38 | 301 | 6.4 | 14.5 | 0.00 | 0.00 | 0.00 | 37 | 1009.3 |
| 20260902195002 | 38 | 186 | 1.6 | 16.1 | 0.00 | 0.00 | 0.00 | 38 | 1009.4 |
| 20260902194556 | 37 | 163 | 6.4 | 16.1 | 0.00 | 0.00 | 0.00 | 39 | 1009.5 |
| 20260902194043 | 37 | 225 | 9.7 | 16.1 | 0.00 | 0.00 | 0.00 | 39 | 1009.6 |
| 20260902193533 | 37 | 158 | 8.0 | 16.1 | 0.00 | 0.00 | 0.00 | 40 | 1009.6 |
| 20260902193021 | 37 | 211 | 8.0 | 16.1 | 0.00 | 0.00 | 0.00 | 40 | 1009.6 |
| 20260902192511 | 37 | 308 | 9.7 | 27.4 | 0.00 | 0.00 | 0.00 | 41 | 1009.8 |
| 20260902192104 | 37 | 213 | 6.4 | 27.4 | 0.00 | 0.00 | 0.00 | 40 | 1009.9 |
| 20260902191552 | 37 | 173 | 3.2 | 11.3 | 0.00 | 0.00 | 0.00 | 39 | 1010.0 |
| 20260902191044 | 37 | 153 | 3.2 | 9.7 | 0.00 | 0.00 | 0.00 | 41 | 1010.0 |
| 20260902190529 | 36 | 226 | 0.0 | 9.7 | 0.00 | 0.00 | 0.00 | 41 | 1010.1 |
| 20260902190007 | 36 | 355 | 1.6 | 17.7 | 0.00 | 0.00 | 0.00 | 41 | 1010.2 |
| 20260902185558 | 36 | 118 | 3.2 | 17.7 | 0.00 | 0.00 | 0.00 | 40 | 1010.3 |
| 20260902185048 | 37 | 97 | 8.0 | 16.1 | 0.00 | 0.00 | 0.00 | 40 | 1010.3 |
| 20260902184537 | 37 | 261 | 0.0 | 14.5 | 0.00 | 0.00 | 0.00 | 41 | 1010.4 |
| 20260902184025 | 36 | 269 | 4.8 | 14.5 | 0.00 | 0.00 | 0.00 | 42 | 1010.5 |
| 20260902183515 | 36 | 34 | 4.8 | 14.5 | 0.00 | 0.00 | 0.00 | 41 | 1010.6 |
| 20260902183005 | 36 | 97 | 8.0 | 14.5 | 0.00 | 0.00 | 0.00 | 41 | 1010.7 |
| 20260902182556 | 36 | 90 | 3.2 | 14.5 | 0.00 | 0.00 | 0.00 | 41 | 1010.8 |
| 20260902182044 | 36 | 258 | 6.4 | 16.1 | 0.00 | 0.00 | 0.00 | 42 | 1010.9 |
| 20260902181534 | 36 | 210 | 4.8 | 17.7 | 0.00 | 0.00 | 0.00 | 42 | 1011.0 |
| 20260902181024 | 36 | 64 | 1.6 | 12.9 | 0.00 | 0.00 | 0.00 | 44 | 1011.1 |
| 20260902180513 | 36 | 120 | 4.8 | 14.5 | 0.00 | 0.00 | 0.00 | 44 | 1011.2 |
| 20260902180058 | 35 | 225 | 9.7 | 16.1 | 0.00 | 0.00 | 0.00 | 45 | 1011.4 |
| 20260902175541 | 35 | 344 | 9.7 | 16.1 | 0.00 | 0.00 | 0.00 | 44 | 1011.4 |
| 20260902175030 | 35 | 128 | 1.6 | 17.7 | 0.00 | 0.00 | 0.00 | 45 | 1011.5 |
| 20260902174520 | 35 | 325 | 4.8 | 17.7 | 0.00 | 0.00 | 0.00 | 45 | 1011.5 |
| 20260902174009 | 35 | 232 | 11.3 | 17.7 | 0.00 | 0.00 | 0.00 | 45 | 1011.7 |
| 20260902173601 | 35 | 238 | 6.4 | 16.1 | 0.00 | 0.00 | 0.00 | 46 | 1011.7 |
| 20260902173049 | 35 | 300 | 1.6 | 11.3 | 0.00 | 0.00 | 0.00 | 46 | 1011.8 |
| 20260902172541 | 35 | 37 | 0.0 | 12.9 | 0.00 | 0.00 | 0.00 | 47 | 1011.8 |
| 20260902172031 | 35 | 325 | 3.2 | 14.5 | 0.00 | 0.00 | 0.00 | 47 | 1011.9 |
| 20260902171517 | 35 | 227 | 6.4 | 14.5 | 0.00 | 0.00 | 0.00 | 47 | 1012.0 |
| 20260902171005 | 35 | 194 | 3.2 | 14.5 | 0.00 | 0.00 | 0.00 | 47 | 1012.1 |
| 20260902170557 | 35 | 262 | 3.2 | 22.5 | 0.00 | 0.00 | 0.00 | 47 | 1012.1 |
| 20260902170034 | 35 | 194 | 9.7 | 22.5 | 0.00 | 0.00 | 0.00 | 49 | 1012.2 |
| 20260902165524 | 35 | 176 | 0.0 | 16.1 | 0.00 | 0.00 | 0.00 | 49 | 1012.3 |
| 20260902165013 | 35 | 212 | 6.4 | 16.1 | 0.00 | 0.00 | 0.00 | 49 | 1012.4 |
| 20260902164502 | 34 | 188 | 8.0 | 16.1 | 0.00 | 0.00 | 0.00 | 50 | 1012.4 |
| 20260902164053 | 34 | 249 | 9.7 | 16.1 | 0.00 | 0.00 | 0.00 | 50 | 1012.4 |
| 20260902163543 | 34 | 157 | 4.8 | 12.9 | 0.00 | 0.00 | 0.00 | 51 | 1012.4 |
| 20260902163032 | 33 | 190 | 4.8 | 12.9 | 0.00 | 0.00 | 0.00 | 50 | 1012.5 |
| 20260902162521 | 33 | 240 | 4.8 | 14.5 | 0.00 | 0.00 | 0.00 | 51 | 1012.4 |
| 20260902162010 | 33 | 254 | 4.8 | 16.1 | 0.00 | 0.00 | 0.00 | 51 | 1012.6 |
| 20260902161604 | 33 | 184 | 3.2 | 16.1 | 0.00 | 0.00 | 0.00 | 52 | 1012.6 |
| 20260902161053 | 33 | 187 | 6.4 | 16.1 | 0.00 | 0.00 | 0.00 | 51 | 1012.6 |
| 20260902160543 | 33 | 227 | 9.7 | 16.1 | 0.00 | 0.00 | 0.00 | 51 | 1012.6 |
| 20260902160017 | 32 | 202 | 4.8 | 14.5 | 0.00 | 0.00 | 0.00 | 53 | 1012.6 |
| 20260902155506 | 32 | 198 | 4.8 | 17.7 | 0.00 | 0.00 | 0.00 | 54 | 1012.6 |
| 20260902155058 | 32 | 219 | 6.4 | 17.7 | 0.00 | 0.00 | 0.00 | 52 | 1012.5 |
| 20260902154606 | 32 | 209 | 9.7 | 17.7 | 0.00 | 0.00 | 0.00 | 52 | 1012.5 |
| 20260902154036 | 32 | 225 | 9.7 | 17.7 | 0.00 | 0.00 | 0.00 | 54 | 1012.4 |
| 20260902153525 | 31 | 275 | 6.4 | 16.1 | 0.00 | 0.00 | 0.00 | 54 | 1012.4 |
| 20260902153017 | 31 | 222 | 12.9 | 16.1 | 0.00 | 0.00 | 0.00 | 55 | 1012.4 |
| 20260902152503 | 31 | 221 | 8.0 | 14.5 | 0.00 | 0.00 | 0.00 | 57 | 1012.4 |
| 20260902152055 | 31 | 248 | 6.4 | 14.5 | 0.00 | 0.00 | 0.00 | 59 | 1012.5 |
| 20260902151548 | 30 | 200 | 4.8 | 17.7 | 0.00 | 0.00 | 0.00 | 62 | 1012.4 |
| 20260902151033 | 30 | 238 | 11.3 | 17.7 | 0.00 | 0.00 | 0.00 | 63 | 1012.5 |
| 20260902150526 | 29 | 213 | 6.4 | 14.5 | 0.00 | 0.00 | 0.00 | 66 | 1012.4 |
| 20260902150059 | 29 | 254 | 6.4 | 12.9 | 0.00 | 0.00 | 0.00 | 67 | 1012.4 |
| 20260902145549 | 29 | 234 | 6.4 | 12.9 | 0.00 | 0.00 | 0.00 | 68 | 1012.5 |
| 20260902145038 | 29 | 227 | 8.0 | 14.5 | 0.00 | 0.00 | 0.00 | 69 | 1012.5 |
| 20260902144527 | 28 | 222 | 9.7 | 14.5 | 0.00 | 0.00 | 0.00 | 71 | 1012.5 |
| 20260902144017 | 28 | 204 | 8.0 | 14.5 | 0.00 | 0.00 | 0.00 | 73 | 1012.5 |
| 20260902143506 | 28 | 213 | 9.7 | 16.1 | 0.00 | 0.00 | 0.00 | 74 | 1012.6 |
| 20260902143058 | 28 | 209 | 11.3 | 16.1 | 0.00 | 0.00 | 0.00 | 75 | 1012.5 |
| 20260902142547 | 27 | 236 | 11.3 | 17.7 | 0.00 | 0.00 | 0.00 | 75 | 1012.6 |
| 20260902142038 | 27 | 208 | 9.7 | 16.1 | 0.00 | 0.00 | 0.00 | 77 | 1012.7 |
| 20260902141527 | 27 | 208 | 9.7 | 16.1 | 0.00 | 0.00 | 0.00 | 79 | 1012.7 |
| 20260902141016 | 26 | 263 | 8.0 | 14.5 | 0.00 | 0.00 | 0.00 | 81 | 1012.7 |
| 20260902140505 | 26 | 219 | 4.8 | 11.3 | 0.00 | 0.00 | 0.00 | 83 | 1012.7 |
| 20260902140043 | 25 | 205 | 4.8 | 9.7 | 0.00 | 0.00 | 0.00 | 84 | 1012.7 |
| 20260902135532 | 25 | 264 | 1.6 | 12.9 | 0.00 | 0.00 | 0.00 | 86 | 1012.6 |
| 20260902135021 | 25 | 194 | 6.4 | 12.9 | 0.00 | 0.00 | 0.00 | 87 | 1012.7 |
| 20260902134511 | 24 | 205 | 6.4 | 16.1 | 0.00 | 0.00 | 0.00 | 89 | 1012.7 |
| 20260902134001 | 23 | 221 | 8.0 | 12.9 | 0.00 | 0.00 | 0.00 | 91 | 1012.7 |
| 20260902133552 | 23 | 207 | 6.4 | 12.9 | 0.00 | 0.00 | 0.00 | 92 | 1012.6 |
| 20260902133052 | 22 | 220 | 3.2 | 8.0 | 0.00 | 0.00 | 0.00 | 93 | 1012.6 |
| 20260902132533 | 22 | 279 | 0.0 | 0.0 | 0.00 | 0.00 | 0.00 | 93 | 1012.6 |
| 20260902132018 | 22 | 279 | 0.0 | 0.0 | 0.00 | 0.00 | 0.00 | 93 | 1012.5 |
| 20260902131508 | 21 | 279 | 0.0 | 0.0 | 0.00 | 0.00 | 0.00 | 94 | 1012.6 |
| 20260902131101 | 21 | 242 | 0.0 | 1.6 | 0.00 | 0.00 | 0.00 | 93 | 1012.6 |
| 20260902130549 | 21 | 241 | 0.0 | 1.6 | 0.00 | 0.00 | 0.00 | 93 | 1012.5 |
| 20260902130026 | 21 | 319 | 0.0 | 1.6 | 0.00 | 0.00 | 0.00 | 93 | 1012.4 |
| 20260902125515 | 20 | 250 | 0.0 | 1.6 | 0.00 | 0.00 | 0.00 | 93 | 1012.3 |
| 20260902125005 | 20 | 204 | 0.0 | 0.0 | 0.00 | 0.00 | 0.00 | 93 | 1012.2 |
| 20260902124603 | 20 | 204 | 0.0 | 0.0 | 0.00 | 0.00 | 0.00 | 92 | 1012.2 |
| 20260902124046 | 20 | 204 | 0.0 | 0.0 | 0.00 | 0.00 | 0.00 | 92 | 1012.1 |
| 20260902123534 | 20 | 204 | 0.0 | 0.0 | 0.00 | 0.00 | 0.00 | 92 | 1012.0 |
| 20260902123023 | 20 | 207 | 0.0 | 0.0 | 0.00 | 0.00 | 0.00 | 92 | 1012.1 |
| 20260902122513 | 20 | 273 | 0.0 | 0.0 | 0.00 | 0.00 | 0.00 | 92 | 1012.1 |
| 20260902122004 | 20 | 273 | 0.0 | 0.0 | 0.00 | 0.00 | 0.00 | 91 | 1012.0 |
| 20260902121558 | 20 | 273 | 0.0 | 0.0 | 0.00 | 0.00 | 0.00 | 91 | 1012.0 |
| 20260902121043 | 20 | 273 | 0.0 | 0.0 | 0.00 | 0.00 | 0.00 | 91 | 1012.0 |
| 20260902120532 | 20 | 273 | 0.0 | 0.0 | 0.00 | 0.00 | 0.00 | 91 | 1011.9 |
| 20260902120010 | 20 | 273 | 0.0 | 0.0 | 0.00 | 0.00 | 0.00 | 91 | 1011.9 |
| 20260902115601 | 20 | 273 | 0.0 | 0.0 | 0.00 | 0.00 | 0.00 | 91 | 1011.9 |
| 20260902115051 | 20 | 273 | 0.0 | 0.0 | 0.00 | 0.00 | 0.00 | 91 | 1011.9 |
| 20260902114539 | 20 | 273 | 0.0 | 0.0 | 0.00 | 0.00 | 0.00 | 91 | 1011.9 |
| 20260902114029 | 20 | 273 | 0.0 | 0.0 | 0.00 | 0.00 | 0.00 | 91 | 1011.9 |
| 20260902113517 | 20 | 273 | 0.0 | 0.0 | 0.00 | 0.00 | 0.00 | 91 | 1011.9 |
| 20260902113004 | 20 | 273 | 0.0 | 0.0 | 0.00 | 0.00 | 0.00 | 91 | 1011.9 |
| 20260902112555 | 20 | 273 | 0.0 | 0.0 | 0.00 | 0.00 | 0.00 | 91 | 1011.8 |
| 20260902112045 | 20 | 273 | 0.0 | 0.0 | 0.00 | 0.00 | 0.00 | 90 | 1011.7 |
| 20260902111537 | 20 | 273 | 0.0 | 0.0 | 0.00 | 0.00 | 0.00 | 90 | 1011.6 |
| 20260902111023 | 20 | 273 | 0.0 | 0.0 | 0.00 | 0.00 | 0.00 | 90 | 1011.7 |
| 20260902110513 | 20 | 273 | 0.0 | 0.0 | 0.00 | 0.00 | 0.00 | 90 | 1011.7 |
| 20260902110052 | 20 | 273 | 0.0 | 0.0 | 0.00 | 0.00 | 0.00 | 90 | 1011.6 |
| 20260902105541 | 21 | 273 | 0.0 | 0.0 | 0.00 | 0.00 | 0.00 | 90 | 1011.7 |
| 20260902105030 | 21 | 273 | 0.0 | 1.6 | 0.00 | 0.00 | 0.00 | 90 | 1011.7 |
| 20260902104519 | 21 | 273 | 0.0 | 0.0 | 0.00 | 0.00 | 0.00 | 89 | 1011.7 |
| 20260902104008 | 21 | 273 | 0.0 | 0.0 | 0.00 | 0.00 | 0.00 | 89 | 1011.7 |
| 20260902103600 | 21 | 273 | 0.0 | 0.0 | 0.00 | 0.00 | 0.00 | 89 | 1011.7 |
| 20260902103052 | 21 | 273 | 0.0 | 0.0 | 0.00 | 0.00 | 0.00 | 89 | 1011.7 |
| 20260902102538 | 21 | 273 | 0.0 | 0.0 | 0.00 | 0.00 | 0.00 | 89 | 1011.7 |
| 20260902102029 | 21 | 273 | 0.0 | 0.0 | 0.00 | 0.00 | 0.00 | 89 | 1011.7 |
| 20260902101528 | 21 | 273 | 0.0 | 0.0 | 0.00 | 0.00 | 0.00 | 89 | 1011.7 |
| 20260902101007 | 21 | 273 | 0.0 | 0.0 | 0.00 | 0.00 | 0.00 | 89 | 1011.8 |
| 20260902100557 | 21 | 273 | 0.0 | 0.0 | 0.00 | 0.00 | 0.00 | 89 | 1011.8 |
| 20260902100035 | 21 | 273 | 0.0 | 0.0 | 0.00 | 0.00 | 0.00 | 88 | 1011.7 |
| 20260902095524 | 21 | 273 | 0.0 | 0.0 | 0.00 | 0.00 | 0.00 | 88 | 1011.7 |
| 20260902095012 | 21 | 273 | 0.0 | 0.0 | 0.00 | 0.00 | 0.00 | 88 | 1011.7 |
| 20260902094502 | 21 | 273 | 0.0 | 0.0 | 0.00 | 0.00 | 0.00 | 88 | 1011.8 |
| 20260902094053 | 21 | 273 | 0.0 | 0.0 | 0.00 | 0.00 | 0.00 | 88 | 1011.8 |
| 20260902093543 | 21 | 273 | 0.0 | 0.0 | 0.00 | 0.00 | 0.00 | 88 | 1011.9 |
| 20260902093041 | 21 | 273 | 0.0 | 0.0 | 0.00 | 0.00 | 0.00 | 88 | 1011.9 |
| 20260902092521 | 21 | 273 | 0.0 | 0.0 | 0.00 | 0.00 | 0.00 | 88 | 1011.8 |
| 20260902092010 | 21 | 273 | 0.0 | 0.0 | 0.00 | 0.00 | 0.00 | 87 | 1011.8 |
| 20260902091602 | 21 | 273 | 0.0 | 1.6 | 0.00 | 0.00 | 0.00 | 87 | 1011.9 |
| 20260902091053 | 21 | 273 | 0.0 | 1.6 | 0.00 | 0.00 | 0.00 | 87 | 1011.9 |
| 20260902090540 | 22 | 273 | 0.0 | 3.2 | 0.00 | 0.00 | 0.00 | 86 | 1011.9 |
| 20260902090017 | 22 | 273 | 0.0 | 3.2 | 0.00 | 0.00 | 0.00 | 86 | 1012.0 |
| 20260902085511 | 22 | 79 | 0.0 | 0.0 | 0.00 | 0.00 | 0.00 | 85 | 1011.9 |
| 20260902085057 | 22 | 79 | 0.0 | 0.0 | 0.00 | 0.00 | 0.00 | 85 | 1011.8 |
| 20260902084554 | 22 | 79 | 0.0 | 0.0 | 0.00 | 0.00 | 0.00 | 85 | 1011.8 |
| 20260902084036 | 22 | 79 | 0.0 | 0.0 | 0.00 | 0.00 | 0.00 | 84 | 1011.8 |
| 20260902083529 | 22 | 79 | 0.0 | 0.0 | 0.00 | 0.00 | 0.00 | 84 | 1011.8 |
| 20260902083017 | 22 | 79 | 0.0 | 0.0 | 0.00 | 0.00 | 0.00 | 84 | 1011.8 |
| 20260902082503 | 22 | 79 | 0.0 | 0.0 | 0.00 | 0.00 | 0.00 | 84 | 1011.9 |
| 20260902082058 | 22 | 79 | 0.0 | 0.0 | 0.00 | 0.00 | 0.00 | 84 | 1011.9 |
| 20260902081605 | 22 | 79 | 0.0 | 0.0 | 0.00 | 0.00 | 0.00 | 83 | 1012.0 |
| 20260902081034 | 22 | 79 | 0.0 | 0.0 | 0.00 | 0.00 | 0.00 | 83 | 1012.1 |
| 20260902080523 | 23 | 79 | 0.0 | 0.0 | 0.00 | 0.00 | 0.00 | 83 | 1012.1 |
| 20260902075551 | 23 | 79 | 0.0 | 0.0 | 0.00 | 0.00 | 0.00 | 83 | 1012.1 |
| 20260902075040 | 23 | 79 | 0.0 | 0.0 | 0.00 | 0.00 | 0.00 | 83 | 1012.2 |
| 20260902074529 | 23 | 79 | 0.0 | 0.0 | 0.00 | 0.00 | 0.00 | 83 | 1012.1 |
| 20260902074019 | 23 | 79 | 0.0 | 0.0 | 0.00 | 0.00 | 0.00 | 82 | 1012.1 |
| 20260902073508 | 23 | 79 | 0.0 | 0.0 | 0.00 | 0.00 | 0.00 | 81 | 1012.1 |
| 20260902073059 | 23 | 79 | 0.0 | 0.0 | 0.00 | 0.00 | 0.00 | 82 | 1011.9 |
| 20260902072549 | 23 | 79 | 0.0 | 0.0 | 0.00 | 0.00 | 0.00 | 81 | 1012.0 |
| 20260902072038 | 24 | 79 | 0.0 | 0.0 | 0.00 | 0.00 | 0.00 | 81 | 1012.1 |
| 20260902071534 | 24 | 79 | 0.0 | 0.0 | 0.00 | 0.00 | 0.00 | 80 | 1012.0 |
| 20260902071020 | 24 | 79 | 0.0 | 0.0 | 0.00 | 0.00 | 0.00 | 81 | 1012.2 |
| 20260902070505 | 24 | 79 | 0.0 | 0.0 | 0.00 | 0.00 | 0.00 | 80 | 1012.2 |
| 20260902070045 | 24 | 79 | 0.0 | 0.0 | 0.00 | 0.00 | 0.00 | 80 | 1012.1 |
| 20260902065536 | 25 | 79 | 0.0 | 0.0 | 0.00 | 0.00 | 0.00 | 80 | 1012.1 |
| 20260902065024 | 25 | 79 | 0.0 | 0.0 | 0.00 | 0.00 | 0.00 | 78 | 1012.2 |
| 20260902064514 | 25 | 79 | 0.0 | 0.0 | 0.00 | 0.00 | 0.00 | 77 | 1012.2 |
| 20260902064002 | 25 | 79 | 0.0 | 0.0 | 0.00 | 0.00 | 0.00 | 77 | 1012.1 |
| 20260902063553 | 25 | 79 | 0.0 | 0.0 | 0.00 | 0.00 | 0.00 | 77 | 1012.1 |
| 20260902063046 | 25 | 79 | 0.0 | 0.0 | 0.00 | 0.00 | 0.00 | 77 | 1012.1 |
| 20260902062531 | 25 | 79 | 0.0 | 0.0 | 0.00 | 0.00 | 0.00 | 76 | 1012.1 |
| 20260902062022 | 25 | 79 | 0.0 | 0.0 | 0.00 | 0.00 | 0.00 | 76 | 1012.0 |
| 20260902061522 | 25 | 79 | 0.0 | 0.0 | 0.00 | 0.00 | 0.00 | 76 | 1012.0 |
| 20260902061104 | 25 | 79 | 0.0 | 4.8 | 0.00 | 0.00 | 0.00 | 76 | 1012.1 |
| 20260902060553 | 26 | 79 | 0.0 | 4.8 | 0.00 | 0.00 | 0.00 | 75 | 1012.1 |
| 20260902060027 | 26 | 105 | 0.0 | 3.2 | 0.00 | 0.00 | 0.00 | 75 | 1012.0 |
| 20260902055516 | 26 | 105 | 0.0 | 1.6 | 0.00 | 0.00 | 0.00 | 75 | 1012.0 |
| 20260902055006 | 26 | 105 | 0.0 | 1.6 | 0.00 | 0.00 | 0.00 | 75 | 1011.9 |
| 20260902054559 | 26 | 105 | 0.0 | 0.0 | 0.00 | 0.00 | 0.00 | 75 | 1012.0 |
| 20260902054046 | 26 | 104 | 0.0 | 0.0 | 0.00 | 0.00 | 0.00 | 74 | 1012.0 |
| 20260902053536 | 26 | 104 | 0.0 | 4.8 | 0.00 | 0.00 | 0.00 | 74 | 1012.0 |
| 20260902053028 | 26 | 104 | 0.0 | 4.8 | 0.00 | 0.00 | 0.00 | 74 | 1011.9 |
| 20260902052516 | 26 | 82 | 0.0 | 0.0 | 0.00 | 0.00 | 0.00 | 74 | 1012.0 |
| 20260902052004 | 26 | 82 | 0.0 | 0.0 | 0.00 | 0.00 | 0.00 | 73 | 1012.0 |
| 20260902051555 | 26 | 82 | 0.0 | 1.6 | 0.00 | 0.00 | 0.00 | 73 | 1012.0 |
| 20260902051044 | 26 | 82 | 0.0 | 3.2 | 0.00 | 0.00 | 0.00 | 73 | 1011.9 |
| 20260902050536 | 26 | 82 | 0.0 | 0.0 | 0.00 | 0.00 | 0.00 | 72 | 1011.9 |
| 20260902050011 | 27 | 82 | 0.0 | 3.2 | 0.00 | 0.00 | 0.00 | 72 | 1011.9 |
| 20260902045601 | 27 | 82 | 0.0 | 3.2 | 0.00 | 0.00 | 0.00 | 71 | 1011.9 |
| 20260902045050 | 27 | 82 | 0.0 | 0.0 | 0.00 | 0.00 | 0.00 | 71 | 1011.8 |
| 20260902044601 | 27 | 82 | 0.0 | 4.8 | 0.00 | 0.00 | 0.00 | 70 | 1011.9 |
| 20260902044030 | 27 | 82 | 0.0 | 4.8 | 0.00 | 0.00 | 0.00 | 70 | 1011.9 |
| 20260902043518 | 27 | 82 | 0.0 | 3.2 | 0.00 | 0.00 | 0.00 | 69 | 1011.8 |
| 20260902043008 | 27 | 82 | 0.0 | 6.4 | 0.00 | 0.00 | 0.00 | 69 | 1011.8 |
| 20260902042559 | 27 | 82 | 0.0 | 6.4 | 0.00 | 0.00 | 0.00 | 69 | 1011.8 |
| 20260902042051 | 27 | 102 | 1.6 | 6.4 | 0.00 | 0.00 | 0.00 | 68 | 1011.8 |
| 20260902041538 | 28 | 111 | 0.0 | 6.4 | 0.00 | 0.00 | 0.00 | 68 | 1011.8 |
| 20260902041030 | 28 | 113 | 0.0 | 3.2 | 0.00 | 0.00 | 0.00 | 67 | 1011.7 |
| 20260902040516 | 28 | 121 | 0.0 | 3.2 | 0.00 | 0.00 | 0.00 | 66 | 1011.6 |
| 20260902040058 | 28 | 109 | 0.0 | 3.2 | 0.00 | 0.00 | 0.00 | 66 | 1011.5 |
| 20260902035544 | 28 | 109 | 0.0 | 3.2 | 0.00 | 0.00 | 0.00 | 66 | 1011.6 |
| 20260902035034 | 28 | 107 | 0.0 | 3.2 | 0.00 | 0.00 | 0.00 | 66 | 1011.6 |
| 20260902034527 | 28 | 106 | 0.0 | 4.8 | 0.00 | 0.00 | 0.00 | 65 | 1011.6 |
| 20260902034011 | 28 | 108 | 0.0 | 4.8 | 0.00 | 0.00 | 0.00 | 65 | 1011.6 |
| 20260902033602 | 28 | 115 | 0.0 | 4.8 | 0.00 | 0.00 | 0.00 | 65 | 1011.6 |
| 20260902033102 | 28 | 124 | 1.6 | 11.3 | 0.00 | 0.00 | 0.00 | 65 | 1011.5 |
| 20260902032541 | 28 | 127 | 1.6 | 11.3 | 0.00 | 0.00 | 0.00 | 65 | 1011.4 |
| 20260902032030 | 28 | 103 | 1.6 | 6.4 | 0.00 | 0.00 | 0.00 | 65 | 1011.3 |
| 20260902031519 | 28 | 136 | 0.0 | 4.8 | 0.00 | 0.00 | 0.00 | 65 | 1011.2 |
| 20260902031008 | 28 | 99 | 0.0 | 3.2 | 0.00 | 0.00 | 0.00 | 65 | 1011.1 |
| 20260902030600 | 28 | 96 | 0.0 | 3.2 | 0.00 | 0.00 | 0.00 | 65 | 1011.0 |
| 20260902030036 | 28 | 94 | 0.0 | 0.0 | 0.00 | 0.00 | 0.00 | 65 | 1010.9 |
| 20260902025526 | 28 | 94 | 0.0 | 1.6 | 0.00 | 0.00 | 0.00 | 64 | 1010.8 |
| 20260902025015 | 28 | 94 | 0.0 | 1.6 | 0.00 | 0.00 | 0.00 | 64 | 1010.7 |
| 20260902024511 | 28 | 92 | 0.0 | 3.2 | 0.00 | 0.00 | 0.00 | 64 | 1010.6 |
| 20260902024059 | 28 | 92 | 0.0 | 3.2 | 0.00 | 0.00 | 0.00 | 64 | 1010.6 |
| 20260902023544 | 28 | 92 | 0.0 | 3.2 | 0.00 | 0.00 | 0.00 | 63 | 1010.5 |
| 20260902023035 | 28 | 90 | 0.0 | 3.2 | 0.00 | 0.00 | 0.00 | 63 | 1010.4 |
| 20260902022520 | 28 | 90 | 0.0 | 1.6 | 0.00 | 0.00 | 0.00 | 62 | 1010.4 |
| 20260902022010 | 29 | 90 | 0.0 | 1.6 | 0.00 | 0.00 | 0.00 | 62 | 1010.3 |
| 20260902021601 | 29 | 90 | 0.0 | 1.6 | 0.00 | 0.00 | 0.00 | 62 | 1010.3 |
| 20260902021050 | 29 | 90 | 0.0 | 0.0 | 0.00 | 0.00 | 0.00 | 61 | 1010.1 |
| 20260902020539 | 30 | 90 | 0.0 | 0.0 | 0.00 | 0.00 | 0.00 | 60 | 1010.0 |